Somerset, KY

7:49 AM EDT on April 27, 2017 (GMT -0400)
Somerset-Pulaski County-Wilson

Weather History for KSME - January, 2014

Change the Weather History Date:

Tuesday, January 28, 2014

  Actual Average Record
Temperature  
Mean Temperature 11 °F -  
Max Temperature 14 °F 46 °F 69 °F (2002)
Min Temperature 8 °F 27 °F 8 °F (2014)
Degree Days  
Heating Degree Days 54    
Moisture  
Dew Point -4 °F    
Average Humidity 50    
Maximum Humidity 62    
Minimum Humidity 38    
Precipitation  
Precipitation 0.00 in - - ()
Sea Level Pressure  
Sea Level Pressure 30.36 in    
Wind  
Wind Speed 7 mph (NNE)    
Max Wind Speed 13 mph    
Max Gust Speed 17 mph    
Visibility 10 miles    
Events      
Averages and records for this station are not official NWS values.
T = Trace of Precipitation, MM = Missing Value Source: NWS Daily Summary

Daily Weather History Graph

Daily Weather History Graph

Search for Another Location

Airport or City:

Trip Planner

Search our weather history database for the weather conditions in past years. The results will help you decide how hot, cold, wet, or windy it might be!

Date:

Astronomy

Jan. 28, 2014 Rise Set
Actual Time 7:44 AM EST 5:59 PM EST
Civil Twilight 7:16 AM EST 6:26 PM EST
Nautical Twilight 6:45 AM EST 6:58 PM EST
Astronomical Twilight 6:14 AM EST 7:28 PM EST
Moon 5:23 AM EST (1/28) 3:49 PM EST (1/28)
Length of Visible Light 11h 10m
Length of Day
10h 15m
Waning Crescent, 7% of the Moon is Illuminated
Jan 28
Waning Crescent
Jan 30
New
Feb 6
First Quarter
Feb 14
Full
Feb 22
Last Quarter

Hourly Weather History & Observations

Time (EST) Temp. Windchill Dew Point Humidity Pressure Visibility Wind Dir Wind Speed Gust Speed Precip Events Conditions
12:15 AM 14.0 °F 1.2 °F -4.0 °F 45% 30.36 in 10.0 mi NNE 10.4 mph 17.3 mph N/A   Scattered Clouds
12:35 AM 14.0 °F 3.9 °F -4.0 °F 45% 30.37 in 10.0 mi North 6.9 mph 16.1 mph N/A   Clear
12:55 AM 14.0 °F 3.9 °F -4.0 °F 45% 30.36 in 10.0 mi North 6.9 mph - N/A   Clear
1:15 AM 14.0 °F 2.9 °F -2.2 °F 49% 30.36 in 10.0 mi North 8.1 mph - N/A   Clear
1:35 AM 14.0 °F 1.2 °F -4.0 °F 45% 30.36 in 10.0 mi NNE 10.4 mph - N/A   Clear
1:55 AM 12.2 °F -0.2 °F -4.0 °F 48% 30.35 in 10.0 mi NNE 9.2 mph 17.3 mph N/A   Clear
2:15 AM 12.2 °F 0.7 °F -2.2 °F 53% 30.36 in 10.0 mi NNE 8.1 mph - N/A   Scattered Clouds
2:35 AM 12.2 °F -0.2 °F -2.2 °F 53% 30.37 in 10.0 mi NNE 9.2 mph - N/A   Scattered Clouds
2:55 AM 12.2 °F -1.0 °F -2.2 °F 53% 30.37 in 10.0 mi NNE 10.4 mph - N/A   Clear
3:15 AM 12.2 °F 1.7 °F -2.2 °F 53% 30.37 in 10.0 mi NNE 6.9 mph - N/A   Clear
3:35 AM 12.2 °F 1.7 °F -0.4 °F 57% 30.37 in 10.0 mi NNE 6.9 mph - N/A   Mostly Cloudy
3:55 AM 12.2 °F 0.7 °F -0.4 °F 57% 30.37 in 10.0 mi NNE 8.1 mph - N/A   Overcast
4:15 AM 12.2 °F 0.7 °F -0.4 °F 57% 30.37 in 10.0 mi NE 8.1 mph - N/A   Overcast
4:35 AM 10.4 °F -1.5 °F -0.4 °F 62% 30.37 in 10.0 mi NE 8.1 mph - N/A   Overcast
4:55 AM 10.4 °F -1.5 °F -0.4 °F 62% 30.37 in 10.0 mi NNE 8.1 mph - N/A   Overcast
5:15 AM 10.4 °F -4.1 °F -0.4 °F 62% 30.38 in 10.0 mi NE 11.5 mph - N/A   Overcast
5:35 AM 10.4 °F -0.4 °F -0.4 °F 62% 30.38 in 10.0 mi NNE 6.9 mph - N/A   Overcast
5:55 AM 10.4 °F -2.4 °F -2.2 °F 57% 30.38 in 10.0 mi NNE 9.2 mph - N/A   Overcast
6:15 AM 10.4 °F 0.8 °F -0.4 °F 62% 30.38 in 10.0 mi North 5.8 mph - N/A   Overcast
6:35 AM 10.4 °F -1.5 °F -0.4 °F 62% 30.38 in 10.0 mi NE 8.1 mph - N/A   Overcast
6:55 AM 10.4 °F -2.4 °F -0.4 °F 62% 30.38 in 10.0 mi NNE 9.2 mph - N/A   Overcast
7:15 AM 8.6 °F -5.5 °F -2.2 °F 62% 30.37 in 10.0 mi NE 10.4 mph - N/A   Overcast
7:35 AM 8.6 °F -7.0 °F -4.0 °F 57% 30.38 in 10.0 mi NE 12.7 mph - N/A   Overcast
7:55 AM 8.6 °F -3.7 °F -4.0 °F 57% 30.40 in 10.0 mi NNE 8.1 mph - N/A   Overcast
8:15 AM 8.6 °F -4.7 °F -4.0 °F 57% 30.40 in 10.0 mi NNE 9.2 mph - N/A   Overcast
8:35 AM 8.6 °F -1.3 °F -4.0 °F 57% 30.40 in 10.0 mi NNE 5.8 mph - N/A   Mostly Cloudy
8:55 AM 8.6 °F -4.7 °F -4.0 °F 57% 30.40 in 10.0 mi NE 9.2 mph - N/A   Scattered Clouds
9:15 AM 8.6 °F -4.7 °F -4.0 °F 57% 30.39 in 10.0 mi NE 9.2 mph - N/A   Mostly Cloudy
9:35 AM 10.4 °F -3.3 °F -4.0 °F 52% 30.39 in 10.0 mi NE 10.4 mph - N/A   Overcast
9:55 AM 10.4 °F -1.5 °F -7.6 °F 44% 30.41 in 10.0 mi NE 8.1 mph - N/A   Mostly Cloudy
10:15 AM 10.4 °F -1.5 °F -5.8 °F 48% 30.40 in 10.0 mi NNE 8.1 mph - N/A   Scattered Clouds
10:35 AM 10.4 °F -2.4 °F -7.6 °F 44% 30.41 in 10.0 mi NNE 9.2 mph - N/A   Scattered Clouds
10:55 AM 10.4 °F -0.4 °F -5.8 °F 48% 30.41 in 10.0 mi North 6.9 mph - N/A   Overcast
11:15 AM 10.4 °F -0.4 °F -5.8 °F 48% 30.40 in 10.0 mi NE 6.9 mph - N/A   Overcast
11:35 AM 10.4 °F 2.2 °F -4.0 °F 52% 30.41 in 10.0 mi NNE 4.6 mph - N/A   Overcast
11:55 AM 12.2 °F 0.7 °F -5.8 °F 45% 30.40 in 10.0 mi NNE 8.1 mph - N/A   Mostly Cloudy
12:15 PM 12.2 °F 2.9 °F -4.0 °F 48% 30.38 in 10.0 mi NE 5.8 mph - N/A   Mostly Cloudy
12:35 PM 12.2 °F 2.9 °F -4.0 °F 48% 30.37 in 10.0 mi ENE 5.8 mph - N/A   Clear
12:55 PM 12.2 °F 2.9 °F -4.0 °F 48% 30.37 in 10.0 mi NE 5.8 mph - N/A   Mostly Cloudy
1:15 PM 12.2 °F 4.3 °F -5.8 °F 45% 30.36 in 10.0 mi North 4.6 mph - N/A   Overcast
1:35 PM 12.2 °F 4.3 °F -5.8 °F 45% 30.36 in 10.0 mi NNE 4.6 mph - N/A   Overcast
1:55 PM 12.2 °F 4.3 °F -5.8 °F 45% 30.33 in 10.0 mi NNE 4.6 mph - N/A   Overcast
2:15 PM 14.0 °F 2.9 °F -5.8 °F 41% 30.33 in 10.0 mi North 8.1 mph - N/A   Overcast
2:35 PM 14.0 °F 5.1 °F -7.6 °F 38% 30.33 in 10.0 mi NE 5.8 mph - N/A   Overcast
2:55 PM 14.0 °F 6.5 °F -7.6 °F 38% 30.33 in 10.0 mi NNW 4.6 mph - N/A   Overcast
3:15 PM 14.0 °F 6.5 °F -5.8 °F 41% 30.33 in 10.0 mi North 4.6 mph - N/A   Overcast
3:35 PM 14.0 °F 5.1 °F -5.8 °F 41% 30.33 in 10.0 mi NE 5.8 mph - N/A   Overcast
3:55 PM 14.0 °F 6.5 °F -4.0 °F 45% 30.33 in 10.0 mi NNE 4.6 mph - N/A   Overcast
4:15 PM 14.0 °F 5.1 °F -5.8 °F 41% 30.32 in 10.0 mi North 5.8 mph - N/A   Overcast
4:35 PM 14.0 °F 3.9 °F -5.8 °F 41% 30.32 in 10.0 mi NE 6.9 mph - N/A   Overcast
4:55 PM 14.0 °F 8.2 °F -5.8 °F 41% 30.32 in 10.0 mi North 3.5 mph - N/A   Overcast
5:15 PM 14.0 °F 5.1 °F -4.0 °F 45% 30.32 in 10.0 mi NNE 5.8 mph - N/A   Overcast
5:35 PM 14.0 °F 6.5 °F -4.0 °F 45% 30.32 in 10.0 mi NNE 4.6 mph - N/A   Overcast
5:55 PM 14.0 °F 6.5 °F -5.8 °F 41% 30.32 in 10.0 mi NNE 4.6 mph - N/A   Overcast
6:15 PM 14.0 °F 6.5 °F -4.0 °F 45% 30.32 in 10.0 mi NNE 4.6 mph - N/A   Overcast
6:35 PM 14.0 °F 6.5 °F -4.0 °F 45% 30.32 in 10.0 mi NNE 4.6 mph - N/A   Overcast
6:55 PM 14.0 °F 5.1 °F -4.0 °F 45% 30.33 in 10.0 mi NE 5.8 mph - N/A   Overcast
7:15 PM 14.0 °F 3.9 °F -2.2 °F 49% 30.31 in 10.0 mi NE 6.9 mph - N/A   Mostly Cloudy
7:35 PM 12.2 °F 6.1 °F -4.0 °F 48% 30.32 in 10.0 mi NNE 3.5 mph - N/A   Scattered Clouds
7:55 PM 12.2 °F 4.3 °F -4.0 °F 48% 30.32 in 10.0 mi NNE 4.6 mph - N/A   Clear
8:15 PM 12.2 °F 4.3 °F -4.0 °F 48% 30.31 in 10.0 mi North 4.6 mph - N/A   Clear
8:35 PM 12.2 °F 4.3 °F -4.0 °F 48% 30.32 in 10.0 mi NNE 4.6 mph - N/A   Clear
8:55 PM 10.4 °F - -4.0 °F 52% 30.32 in 10.0 mi Calm Calm - N/A   Clear
9:15 PM 10.4 °F 2.2 °F -4.0 °F 52% 30.32 in 10.0 mi NNE 4.6 mph - N/A   Clear
9:35 PM 10.4 °F 2.2 °F -5.8 °F 48% 30.33 in 10.0 mi NNE 4.6 mph - N/A   Clear
9:55 PM 10.4 °F 4.0 °F -4.0 °F 52% 30.35 in 10.0 mi NNE 3.5 mph - N/A   Clear
10:15 PM 10.4 °F 4.0 °F -5.8 °F 48% 30.35 in 10.0 mi NNE 3.5 mph - N/A   Clear
10:35 PM 8.6 °F 2.0 °F -5.8 °F 52% 30.35 in 10.0 mi NNE 3.5 mph - N/A   Clear
10:55 PM 8.6 °F 2.0 °F -5.8 °F 52% 30.35 in 10.0 mi NNE 3.5 mph - N/A   Clear
11:15 PM 8.6 °F - -5.8 °F 52% 30.36 in 10.0 mi Calm Calm - N/A   Clear
11:35 PM 8.6 °F 2.0 °F -5.8 °F 52% 30.36 in 10.0 mi North 3.5 mph - N/A   Clear
11:55 PM 8.6 °F - -5.8 °F 52% 30.36 in 10.0 mi Calm Calm - N/A   Clear